timestamp,surface_pressure_avg,surface_temp_avg,battery_voltage,lat,long
2019-09-16 00:00:00+00:00,343.1446,14.2,12.89,47.84626,-54.09684
2019-09-16 00:10:00+00:00,349.7712,14.2,12.81,47.84626,-54.09684
2019-09-16 00:20:00+00:00,351.098,14.2,12.97,47.84626,-54.09684
2019-09-16 00:30:00+00:00,348.6746,14.2,12.97,47.84626,-54.09684
2019-09-16 00:40:00+00:00,353.5529,14.2,12.97,47.84626,-54.09684
2019-09-16 00:50:00+00:00,358.3029,14.2,12.97,47.84626,-54.09684
2019-09-16 01:00:00+00:00,353.8746,14.2,12.89,47.84626,-54.09684
2019-09-16 01:10:00+00:00,353.2863,14.2,12.81,47.84626,-54.09684
2019-09-16 01:20:00+00:00,355.8014,14.2,12.89,47.84626,-54.09684
2019-09-16 01:30:00+00:00,353.5746,14.2,12.97,47.84626,-54.09684
2019-09-16 01:40:00+00:00,344.4629,14.2,12.97,47.84626,-54.09684
2019-09-16 01:50:00+00:00,338.918,14.2,12.97,47.84626,-54.09684
2019-09-16 02:00:00+00:00,336.058,14.2,12.89,47.84626,-54.09684
2019-09-16 02:10:00+00:00,327.9097,14.2,12.81,47.84626,-54.09684
2019-09-16 02:20:00+00:00,321.0114,14.2,12.89,47.84626,-54.09684
2019-09-16 02:30:00+00:00,320.3431,14.2,12.89,47.84626,-54.09684
2019-09-16 02:40:00+00:00,316.993,14.2,12.97,47.84626,-54.09684
2019-09-16 02:50:00+00:00,307.6863,14.2,12.97,47.84626,-54.09684
2019-09-16 03:00:00+00:00,300.053,14.2,12.89,47.84626,-54.09684
2019-09-16 03:10:00+00:00,296.5931,14.2,12.81,47.84626,-54.09684
2019-09-16 03:20:00+00:00,289.4547,14.2,12.89,47.84626,-54.09684
2019-09-16 03:30:00+00:00,281.2464,14.2,12.89,47.84626,-54.09684
2019-09-16 03:40:00+00:00,273.8564,14.2,12.97,47.84626,-54.09684
2019-09-16 03:50:00+00:00,266.7215,14.2,12.97,47.84626,-54.09684
2019-09-16 04:00:00+00:00,258.4997,14.2,12.89,47.84626,-54.09684
2019-09-16 04:10:00+00:00,253.2264,14.2,12.81,47.84626,-54.09684
2019-09-16 04:20:00+00:00,247.6831,14.2,12.89,47.84626,-54.09684
2019-09-16 04:30:00+00:00,241.9731,14.2,12.89,47.84626,-54.09684
2019-09-16 04:40:00+00:00,233.9614,14.2,12.89,47.84626,-54.09684
2019-09-16 04:50:00+00:00,224.5748,14.2,12.89,47.84626,-54.09684
2019-09-16 05:00:00+00:00,216.6564,14.2,12.81,47.84626,-54.09684
2019-09-16 05:10:00+00:00,210.7281,14.2,12.81,47.84626,-54.09684
2019-09-16 05:20:00+00:00,201.6231,14.2,12.89,47.84626,-54.09684
2019-09-16 05:30:00+00:00,194.6531,14.2,12.89,47.84626,-54.09684
2019-09-16 05:40:00+00:00,192.4731,14.2,12.89,47.84626,-54.09684
2019-09-16 05:50:00+00:00,188.5215,14.2,12.89,47.84626,-54.09684
2019-09-16 06:00:00+00:00,183.4465,14.2,12.81,47.84626,-54.09684
2019-09-16 06:10:00+00:00,185.2898,14.2,12.81,47.84626,-54.09684
2019-09-16 06:20:00+00:00,187.4865,14.2,12.89,47.84626,-54.09684
2019-09-16 06:30:00+00:00,183.0365,14.2,12.89,47.84626,-54.09684
2019-09-16 06:40:00+00:00,180.6448,14.2,12.89,47.84626,-54.09684
2019-09-16 06:50:00+00:00,186.3831,14.2,12.89,47.84626,-54.09684
2019-09-16 07:00:00+00:00,192.3881,14.2,12.81,47.84626,-54.09684
2019-09-16 07:10:00+00:00,192.4032,14.2,12.73,47.84626,-54.09684
2019-09-16 07:20:00+00:00,193.0631,14.2,12.81,47.84626,-54.09684
2019-09-16 07:30:00+00:00,201.0414,14.2,12.81,47.84626,-54.09684
2019-09-16 07:40:00+00:00,208.3997,14.2,12.89,47.84626,-54.09684
2019-09-16 07:50:00+00:00,211.9198,14.2,12.89,47.84626,-54.09684
2019-09-16 08:00:00+00:00,217.8264,14.2,12.81,47.84626,-54.09684
2019-09-16 08:10:00+00:00,225.1331,14.2,12.73,47.84626,-54.09684
2019-09-16 08:20:00+00:00,229.9098,14.2,12.81,47.84626,-54.09684
2019-09-16 08:30:00+00:00,233.4048,14.2,12.81,47.84626,-54.09684
2019-09-16 08:40:00+00:00,240.2697,14.2,12.89,47.84626,-54.09684
2019-09-16 08:50:00+00:00,246.4164,14.2,12.89,47.84626,-54.09684
2019-09-16 09:00:00+00:00,248.4014,14.2,12.81,47.84626,-54.09684
2019-09-16 09:10:00+00:00,251.2198,14.2,12.73,47.84626,-54.09684
2019-09-16 09:20:00+00:00,259.6464,14.2,12.81,47.84626,-54.09684
2019-09-16 09:30:00+00:00,264.8247,14.2,12.81,47.84626,-54.09684
2019-09-16 09:40:00+00:00,268.3331,14.2,12.89,47.84626,-54.09684
2019-09-16 09:50:00+00:00,272.1381,14.2,12.89,47.84626,-54.09684
2019-09-16 10:00:00+00:00,277.8898,14.2,12.81,47.84626,-54.09684
2019-09-16 10:10:00+00:00,281.623,14.2,12.73,47.84626,-54.09684
2019-09-16 10:20:00+00:00,288.548,14.2,12.89,47.84626,-54.09684
2019-09-16 10:30:00+00:00,294.2764,14.2,12.89,47.84626,-54.09684
2019-09-16 10:40:00+00:00,300.5046,14.21,12.97,47.84626,-54.09684
2019-09-16 10:50:00+00:00,306.578,14.24,13.05,47.84626,-54.09684
2019-09-16 11:00:00+00:00,309.2697,14.27,12.97,47.84626,-54.09684
2019-09-16 11:10:00+00:00,313.2014,14.27,12.97,47.84626,-54.09684
2019-09-16 11:20:00+00:00,319.973,14.26,13.05,47.84626,-54.09684
2019-09-16 11:30:00+00:00,328.6513,14.25,13.05,47.84626,-54.09684
2019-09-16 11:40:00+00:00,332.5212,14.28,13.13,47.84626,-54.09684
2019-09-16 11:50:00+00:00,338.363,14.29,13.21,47.84626,-54.09684
2019-09-16 12:00:00+00:00,345.218,14.29,13.21,47.84626,-54.09684
2019-09-16 12:10:00+00:00,350.4097,14.29,13.21,47.84626,-54.09684
2019-09-16 12:20:00+00:00,352.8129,14.29,13.37,47.84626,-54.09684
2019-09-16 12:30:00+00:00,355.8997,14.29,13.44,47.84626,-54.09684
2019-09-16 12:40:00+00:00,359.6678,14.27,13.53,47.84626,-54.09684
2019-09-16 12:50:00+00:00,359.3231,14.29,13.53,47.84626,-54.09684
2019-09-16 13:00:00+00:00,355.6913,14.29,13.44,47.84626,-54.09684
2019-09-16 13:10:00+00:00,358.9429,14.29,13.37,47.84626,-54.09684
2019-09-16 13:20:00+00:00,361.1646,14.29,13.44,47.84626,-54.09684
2019-09-16 13:30:00+00:00,356.3712,14.29,13.6,47.84626,-54.09684
2019-09-16 13:40:00+00:00,352.8429,14.3,13.76,47.84626,-54.09684
2019-09-16 13:50:00+00:00,352.1912,14.3,13.84,47.84626,-54.09684
2019-09-16 14:00:00+00:00,347.913,14.3,13.76,47.84626,-54.09684
2019-09-16 14:10:00+00:00,339.9263,14.3,13.68,47.84626,-54.09684
2019-09-16 14:20:00+00:00,334.6647,14.3,13.84,47.84626,-54.09684
2019-09-16 14:30:00+00:00,330.503,14.3,13.92,47.84626,-54.09684
2019-09-16 14:40:00+00:00,325.4797,14.3,14.08,47.84626,-54.09684
2019-09-16 14:50:00+00:00,322.3864,14.3,14.16,47.84626,-54.09684
2019-09-16 15:00:00+00:00,316.8029,14.3,13.92,47.84626,-54.09684
2019-09-16 15:10:00+00:00,309.3297,14.3,13.84,47.84626,-54.09684
2019-09-16 15:20:00+00:00,308.2097,14.3,13.92,47.84626,-54.09684
2019-09-16 15:30:00+00:00,306.2046,14.3,14.0,47.84626,-54.09684
2019-09-16 15:40:00+00:00,297.308,14.3,14.08,47.84626,-54.09684
2019-09-16 15:50:00+00:00,289.1431,14.3,14.16,47.84626,-54.09684
2019-09-16 16:00:00+00:00,286.4947,14.3,14.16,47.84626,-54.09684
2019-09-16 16:10:00+00:00,282.3614,14.3,14.08,47.84626,-54.09684
2019-09-16 16:20:00+00:00,269.3414,14.3,14.24,47.84626,-54.09684
2019-09-16 16:30:00+00:00,260.6531,14.32,14.32,47.84626,-54.09684
2019-09-16 16:40:00+00:00,258.0114,14.34,14.24,47.84626,-54.09684
2019-09-16 16:50:00+00:00,250.0247,14.35,14.24,47.84626,-54.09684
2019-09-16 17:00:00+00:00,235.2097,14.39,14.08,47.84626,-54.09684
2019-09-16 17:10:00+00:00,229.7698,14.4,13.92,47.84626,-54.09684
2019-09-16 17:20:00+00:00,225.3031,14.4,13.92,47.84626,-54.09684
2019-09-16 17:30:00+00:00,213.3915,14.4,13.84,47.84626,-54.09684
2019-09-16 17:40:00+00:00,201.7964,14.4,13.92,47.84626,-54.09684
2019-09-16 17:50:00+00:00,200.7048,14.4,13.92,47.84626,-54.09684
2019-09-16 18:00:00+00:00,198.3781,14.4,13.92,47.84626,-54.09684
2019-09-16 18:10:00+00:00,193.3181,14.4,13.84,47.84626,-54.09684
2019-09-16 18:20:00+00:00,190.8815,14.4,13.92,47.84626,-54.09684
2019-09-16 18:30:00+00:00,188.2931,14.4,14.0,47.84626,-54.09684
2019-09-16 18:40:00+00:00,185.0631,14.4,14.0,47.84626,-54.09684
2019-09-16 18:50:00+00:00,185.2214,14.4,14.08,47.84626,-54.09684
2019-09-16 19:00:00+00:00,187.6114,14.4,14.0,47.84626,-54.09684
2019-09-16 19:10:00+00:00,188.1531,14.4,13.92,47.84626,-54.09684
2019-09-16 19:20:00+00:00,189.0931,14.4,14.0,47.84626,-54.09684
2019-09-16 19:30:00+00:00,194.9131,14.39,14.08,47.84626,-54.09684
2019-09-16 19:40:00+00:00,198.9115,14.39,14.08,47.84626,-54.09684
2019-09-16 19:50:00+00:00,198.3932,14.4,14.0,47.84626,-54.09684
2019-09-16 20:00:00+00:00,202.7848,14.4,13.84,47.84626,-54.09684
2019-09-16 20:10:00+00:00,210.9381,14.39,13.68,47.84626,-54.09684
2019-09-16 20:20:00+00:00,215.0431,14.39,13.68,47.84626,-54.09684
2019-09-16 20:30:00+00:00,217.8398,14.39,13.68,47.84626,-54.09684
2019-09-16 20:40:00+00:00,225.6664,14.39,13.68,47.84626,-54.09684
2019-09-16 20:50:00+00:00,232.4748,14.37,13.6,47.84626,-54.09684
2019-09-16 21:00:00+00:00,236.2731,14.35,13.53,47.84626,-54.09684
2019-09-16 21:10:00+00:00,243.4147,14.31,13.37,47.84626,-54.09684
2019-09-16 21:20:00+00:00,251.4265,14.3,13.37,47.84626,-54.09684
2019-09-16 21:30:00+00:00,255.8114,14.3,13.29,47.84626,-54.09684
2019-09-16 21:40:00+00:00,259.2497,14.3,13.29,47.84626,-54.09684
2019-09-16 21:50:00+00:00,265.0281,14.3,13.29,47.84626,-54.09684
2019-09-16 22:00:00+00:00,271.0764,14.3,13.21,47.84626,-54.09684
2019-09-16 22:10:00+00:00,276.178,14.3,13.05,47.84626,-54.09684
2019-09-16 22:20:00+00:00,283.1564,14.3,13.05,47.84626,-54.09684
2019-09-16 22:30:00+00:00,290.1097,14.3,13.05,47.84626,-54.09684
2019-09-16 22:40:00+00:00,295.7565,14.3,13.05,47.84626,-54.09684
2019-09-16 22:50:00+00:00,301.333,14.3,13.05,47.84626,-54.09684
2019-09-16 23:00:00+00:00,310.7548,14.3,12.97,47.84626,-54.09684
2019-09-16 23:10:00+00:00,314.5497,14.3,12.89,47.84626,-54.09684
2019-09-16 23:20:00+00:00,319.4897,14.3,12.97,47.84626,-54.09684
2019-09-16 23:30:00+00:00,328.403,14.3,12.97,47.84626,-54.09684
2019-09-16 23:40:00+00:00,335.843,14.3,12.97,47.84626,-54.09684
2019-09-16 23:50:00+00:00,338.223,14.3,13.05,47.84626,-54.09684
